Location: Unspecified
(42.9300°N, 71.1866°W)
Time: 05:20:52
(UTC-04:00)

Resurs 1-4 Rocket - Visible Passes

Search period start: 28 May 2018 00:00
Search period end: 07 June 2018 00:00
Orbit: 799 x 814 km, 98.5° (Epoch: 27 May)

Date Brightness Start Highest point End Pass type
(mag) Time Alt. Az. Time Alt. Az. Time Alt. Az.
28 May 3.7 01:52:21 10° NE 01:56:45 26° E 01:58:58 20° SE visible
28 May 2.7 03:31:44 10° N 03:36:43 42° WNW 03:40:03 20° SW visible
29 May 4.2 01:28:50 10° NE 01:31:55 15° E 01:34:07 12° ESE visible
29 May 2.1 03:06:57 10° N 03:12:15 69° WNW 03:15:12 27° SSW visible
30 May 2.2 02:42:21 10° NNE 02:47:41 73° ESE 02:50:21 30° S visible
30 May 3.9 04:23:39 10° NNW 04:26:54 17° WNW 04:30:09 10° W visible
31 May 2.9 02:17:57 10° NNE 02:23:02 44° E 02:25:30 27° SSE visible
31 May 3.4 03:58:18 10° N 04:02:37 26° WNW 04:06:35 11° WSW visible
01 Jun 3.7 01:53:50 10° NE 01:58:18 27° E 02:00:40 20° SE visible
01 Jun 2.8 03:33:17 10° N 03:38:14 41° WNW 03:41:45 18° SW visible
02 Jun 4.2 01:30:14 10° NE 01:33:28 16° E 01:35:48 13° ESE visible
02 Jun 2.2 03:08:29 10° N 03:13:46 67° WNW 03:16:53 25° SSW visible
03 Jun 2.2 02:43:52 10° NNE 02:49:13 76° ESE 02:52:02 29° S visible
03 Jun 4.0 04:25:15 10° NNW 04:28:24 16° WNW 04:31:34 10° W visible
04 Jun 2.8 02:19:27 10° NNE 02:24:34 45° E 02:27:10 26° SSE visible
04 Jun 3.5 03:59:51 10° N 04:04:07 25° WNW 04:08:15 11° WSW visible
05 Jun 3.6 01:55:19 10° NE 01:59:51 28° E 02:02:19 20° SE visible
05 Jun 2.8 03:34:49 10° N 03:39:45 40° WNW 03:43:24 17° SW visible
06 Jun 4.2 01:31:39 10° NE 01:35:01 17° E 01:37:27 13° ESE visible
06 Jun 2.2 03:10:01 10° N 03:15:18 65° WNW 03:18:32 24° SSW visible
